Wind_Speed
115 117 118 120 121 123 124 125 128 129 130 131 133 134 136 138 139 140 141 143 145 146 146 147 148 149 150 151 151 151 150 150 151 151 149 146 140 132 125 119 113 106 100 96 93 91 91 90 89 89 89 89 89 90 90 90 90 91 92 93 95 96 97
119 120 121 123 125 127 128 129 131 132 133 134 136 137 139 140 141 143 144 146 148 148 148 149 150 152 153 153 153 152 152 152 153 151 149 144 136 129 123 117 111 104 98 93 91 90 90 89 89 88 88 88 89 89 90 90 90 91 92 94 95 96 97
122 123 124 126 128 130 131 133 134 135 136 138 139 140 142 143 144 146 148 150 150 150 151 152 153 154 155 155 154 153 154 155 154 152 148 141 133 126 121 115 108 102 96 92 89 88 88 89 88 88 88 88 88 89 89 90 91 91 92 94 96 97 98
124 125 127 129 131 133 134 136 137 138 140 141 142 144 145 146 148 149 151 152 152 153 154 155 156 157 157 156 155 155 156 156 155 152 146 137 130 125 119 113 106 100 95 90 88 87 87 87 88 87 87 88 88 89 89 89 90 91 92 94 96 98 99
126 128 130 132 134 136 137 139 140 142 144 145 146 147 148 150 151 153 154 154 154 155 157 158 159 159 158 157 157 158 158 157 155 150 142 134 129 124 118 111 105 99 94 90 87 86 86 86 87 87 87 88 88 89 89 89 90 91 93 94 96 98 100
129 130 133 135 137 138 140 141 143 145 146 147 148 150 151 153 154 155 156 156 157 158 160 160 160 160 159 159 160 161 160 158 153 146 139 133 128 123 116 110 104 98 94 90 87 85 85 86 86 87 87 88 88 88 89 90 90 91 92 94 96 98 101
132 134 136 137 139 141 142 144 146 148 149 149 151 153 154 155 156 157 158 159 160 161 162 162 162 161 161 162 163 163 161 157 150 142 136 131 127 121 115 108 102 98 93 90 87 85 84 85 86 86 87 88 88 88 89 90 91 91 93 94 96 98 101
135 137 138 140 141 143 145 148 149 150 150 152 154 155 156 158 158 159 160 162 163 164 164 164 163 163 165 166 165 164 160 154 146 140 134 130 125 120 113 106 101 96 93 89 87 85 85 84 85 86 87 88 89 89 89 90 91 92 93 94 96 98 100
137 139 140 142 144 147 149 150 151 151 153 155 157 158 159 159 160 161 163 164 166 166 166 165 165 167 168 168 167 163 157 149 143 138 133 128 123 117 111 105 99 95 92 89 87 85 85 84 84 85 86 88 89 90 90 90 90 91 93 95 96 98 100
139 141 143 145 147 150 151 152 152 154 156 158 159 160 160 161 161 163 165 166 168 168 167 168 169 170 171 170 167 160 152 145 140 135 131 126 121 114 108 102 98 94 91 88 86 85 84 84 85 85 86 87 89 90 90 91 91 91 92 94 96 98 99
142 144 146 148 150 151 152 153 155 157 159 160 160 161 161 162 163 165 167 168 169 169 169 170 172 173 173 169 163 155 148 143 138 133 128 123 117 110 104 99 95 92 89 87 85 84 84 84 84 85 86 87 88 89 90 91 92 92 92 93 96 98 99
145 147 149 150 151 152 154 157 159 161 161 162 162 162 162 163 165 167 169 170 170 171 172 173 175 175 172 165 157 150 145 140 135 130 125 119 112 106 101 96 93 90 88 86 84 83 82 83 83 85 86 86 87 89 90 91 92 93 93 93 94 97 99
148 149 151 152 153 155 157 160 162 163 163 163 163 164 165 166 167 169 170 171 172 174 175 176 176 173 167 159 153 147 142 137 132 127 120 113 107 102 97 94 91 88 86 85 83 82 81 81 82 84 85 87 87 88 89 91 92 93 94 94 94 95 97
151 152 153 155 156 158 161 163 164 164 164 164 164 166 167 168 170 170 171 173 175 177 178 178 174 168 160 155 150 144 138 133 128 122 115 109 103 99 95 91 88 86 84 83 82 81 80 80 81 83 84 86 87 88 89 90 91 92 93 94 94 94 96
154 155 157 158 160 162 163 164 164 164 165 165 167 168 169 171 171 172 173 176 178 180 180 176 168 162 156 151 146 140 134 128 122 116 110 105 101 96 92 89 87 84 82 80 80 80 80 80 81 82 83 85 87 87 88 89 90 92 93 94 94 95 96
157 158 160 162 164 165 165 165 165 166 168 169 170 171 172 172 173 174 176 178 180 180 176 169 162 157 152 147 142 136 130 123 116 111 106 102 98 95 91 88 85 83 80 78 78 78 79 80 81 82 83 84 86 86 87 88 90 91 92 93 93 94 95
159 161 163 165 165 165 165 167 168 170 171 172 173 174 174 174 175 177 179 181 180 176 170 163 158 153 148 142 137 131 124 118 112 107 103 99 96 93 89 87 84 81 78 77 77 77 78 79 81 82 83 84 85 86 87 88 89 90 91 92 92 93 94
161 163 164 165 165 166 167 170 172 173 174 175 176 176 177 178 179 180 181 180 175 169 163 158 153 148 142 137 131 125 119 114 109 104 100 96 93 91 89 87 84 80 77 77 77 77 77 78 79 81 82 83 84 85 86 88 88 89 90 90 91 92 93
162 162 163 164 165 168 170 172 174 175 176 177 178 179 180 181 182 182 179 174 168 163 158 153 148 143 137 130 124 119 115 110 105 100 96 93 91 89 88 86 83 79 77 76 76 77 77 77 78 80 82 83 84 85 85 86 87 88 89 89 90 90 92
161 161 163 165 168 170 172 173 175 176 177 179 180 181 183 183 182 178 173 167 162 158 153 148 142 136 130 124 119 114 110 106 101 97 93 90 88 87 87 85 82 79 77 76 76 76 77 77 78 80 81 83 84 84 84 85 86 87 88 88 88 89 90
161 163 166 168 170 172 174 175 176 177 179 180 182 184 183 181 176 171 166 161 157 152 147 142 136 129 124 118 114 110 106 102 98 94 91 88 86 86 85 83 82 80 78 77 76 76 76 77 78 79 81 82 83 83 84 84 84 85 86 87 88 88 89
164 166 168 171 172 174 176 177 178 179 181 183 183 182 178 174 169 165 160 155 150 145 140 134 128 123 118 113 109 105 102 98 95 92 89 86 85 84 83 82 81 80 79 78 77 76 76 77 78 79 79 81 82 83 83 83 83 84 85 86 87 88 88
167 169 171 172 174 176 177 179 180 182 183 182 180 175 171 167 163 159 154 148 143 138 132 126 121 117 112 108 104 101 98 95 92 89 87 85 83 82 81 81 80 79 79 78 77 77 77 78 78 78 78 79 80 81 81 82 83 84 85 86 86 87 87
170 171 173 174 176 177 179 181 183 183 181 177 172 168 164 160 156 152 147 141 135 130 125 120 115 111 107 104 100 97 94 92 89 87 85 83 82 80 79 79 79 78 78 78 77 78 78 79 79 78 78 78 78 78 79 81 82 83 84 85 85 86 86
172 173 175 176 178 180 182 183 182 179 175 170 165 161 157 153 149 144 138 133 127 123 118 114 110 106 103 99 96 93 91 89 87 85 83 81 80 79 78 77 77 77 77 77 77 78 78 79 79 78 77 77 77 77 78 80 81 82 83 83 84 85 86
174 175 177 179 181 182 181 179 176 172 168 163 158 154 150 146 141 136 130 125 121 116 111 107 104 101 98 95 92 90 88 86 85 83 81 80 79 78 77 76 76 76 76 77 77 78 78 78 78 78 77 77 77 77 78 79 79 80 81 82 83 84 85
176 178 180 181 181 178 175 171 168 165 160 155 151 147 142 137 132 128 123 119 114 109 105 101 99 96 94 91 89 87 85 84 83 82 80 79 78 77 76 75 75 75 75 76 76 76 77 77 77 78 78 78 77 78 78 78 78 79 80 81 82 83 84
180 181 181 179 175 171 167 164 160 157 152 147 143 138 133 129 125 121 116 112 107 103 100 97 94 92 90 88 86 84 83 82 81 80 79 77 76 75 74 74 74 74 75 75 75 75 76 76 77 77 78 78 78 78 79 78 77 77 78 79 80 81 83
181 180 176 171 167 163 159 156 152 148 144 139 134 129 124 121 118 114 110 106 102 98 95 93 91 88 86 84 83 82 80 79 78 77 76 75 74 73 72 72 72 73 73 73 73 74 75 76 76 77 77 78 78 78 78 77 76 77 77 78 78 80 82
177 173 168 163 159 155 151 147 143 139 134 129 125 121 117 114 111 107 104 100 97 94 92 90 87 84 82 81 79 78 77 76 74 73 73 72 71 70 70 71 70 71 71 72 72 73 74 75 76 76 77 77 77 78 77 76 76 76 77 77 78 79 81
170 165 160 154 150 146 142 138 133 129 125 121 117 114 110 107 104 101 99 96 92 90 88 86 83 81 79 77 76 75 74 73 72 71 70 70 69 68 68 68 68 68 69 70 71 72 73 73 74 75 75 76 77 77 76 75 75 75 76 77 77 78 80
162 156 151 146 142 137 132 128 123 120 117 113 110 107 105 102 98 96 94 91 88 86 84 82 80 78 76 75 74 73 72 71 69 69 68 67 67 66 66 66 66 66 66 67 68 69 70 71 72 73 74 75 75 76 76 75 74 74 75 76 76 77 79
153 148 142 138 134 128 123 118 114 112 110 107 104 102 99 96 93 91 89 86 84 82 81 79 77 76 74 73 72 71 69 68 67 66 65 65 65 64 63 63 63 64 64 65 65 66 68 69 70 70 72 73 73 74 75 74 74 74 74 75 76 77 78
145 140 134 129 125 120 115 110 106 105 104 102 100 97 93 91 89 87 84 82 80 79 78 76 75 73 72 71 70 68 67 66 64 63 62 62 61 61 61 60 61 61 62 62 63 64 65 66 67 68 69 70 71 72 73 73 73 73 73 74 75 76 77
137 132 127 121 116 112 107 103 100 99 98 97 95 92 89 86 85 84 81 79 77 76 75 74 72 71 70 69 67 66 65 64 62 61 60 59 59 58 58 58 58 59 60 60 61 62 62 63 64 65 66 67 68 69 70 70 71 71 71 73 74 75 76
127 124 121 115 109 104 100 98 96 94 93 92 90 87 84 83 82 81 79 76 74 72 72 71 70 68 67 66 65 64 62 61 60 59 58 57 57 57 56 56 56 57 58 59 59 60 60 61 62 63 64 65 66 66 66 67 67 68 69 70 71 72 73
Wind_Direction
293 294 294 295 296 296 296 296 297 298 299 300 300 301 301 302 302 303 303 304 305 305 305 306 306 307 307 308 308 308 308 309 309 309 309 309 309 307 306 304 302 299 295 291 286 282 279 276 274 272 270 269 267 265 264 262 260 258 256 255 253 252 251
293 293 294 294 295 296 296 297 298 299 299 300 301 301 301 302 302 303 303 304 305 305 305 306 306 307 307 307 308 308 308 309 309 309 309 309 308 307 306 304 301 297 294 289 285 281 278 276 274 272 270 268 266 264 262 261 259 257 256 254 253 252 251
293 293 294 294 295 296 297 297 298 299 300 300 301 301 301 302 303 303 304 304 305 305 306 306 306 307 307 307 308 308 308 309 309 309 309 308 307 306 305 303 299 296 292 288 284 280 277 275 273 271 269 267 265 263 261 260 258 257 255 254 253 252 251
293 293 294 294 295 296 297 298 299 299 300 300 301 301 302 302 303 303 304 304 305 305 306 306 306 307 307 307 308 308 308 309 309 309 308 308 307 306 304 301 298 294 291 287 283 279 277 274 273 271 269 267 265 263 261 259 257 256 255 253 252 251 250
293 293 294 295 296 297 297 298 299 300 300 300 301 301 302 303 303 304 304 304 305 305 306 306 306 307 307 307 308 308 308 308 309 308 308 307 306 305 303 300 296 293 289 286 282 279 276 274 272 270 268 266 264 263 261 259 257 256 254 253 251 251 250
293 293 294 295 296 297 298 298 299 299 300 300 301 302 302 303 303 304 304 305 305 305 306 306 306 307 307 308 308 308 308 308 308 308 307 306 305 304 302 298 295 291 288 285 281 278 275 273 271 269 267 266 264 262 261 259 257 255 254 252 251 250 249
293 294 295 295 296 297 298 298 299 299 300 300 301 302 302 303 303 304 304 305 305 305 305 306 306 307 307 307 308 308 308 308 308 307 306 305 304 303 300 297 293 290 287 284 281 278 275 272 270 268 267 265 263 261 260 259 257 255 254 252 251 250 249
293 294 295 296 297 297 298 298 299 299 300 301 302 302 303 303 304 304 304 305 305 305 305 306 306 307 307 307 308 308 308 307 307 306 305 305 303 301 299 295 292 289 286 283 280 277 274 271 269 267 265 264 263 261 259 258 257 255 254 252 251 250 249
294 295 296 297 297 297 298 298 299 299 300 301 302 302 303 303 304 304 304 305 305 305 305 306 307 307 307 307 307 307 307 306 306 305 305 304 302 300 297 294 291 288 285 282 279 276 274 271 268 266 264 263 261 260 259 257 256 254 254 253 252 251 250
295 296 296 296 297 297 298 298 299 299 300 301 302 302 303 303 304 304 304 304 304 305 306 306 307 307 307 307 307 307 306 306 305 304 304 302 301 298 295 292 289 286 284 281 278 276 273 270 267 265 263 261 260 259 258 257 256 254 253 252 252 251 250
295 295 296 296 297 297 298 298 299 299 300 301 301 302 302 303 303 304 304 304 304 305 306 306 306 307 307 307 306 306 305 305 304 303 303 301 299 297 294 291 288 285 283 280 277 275 272 269 267 265 262 260 259 258 257 256 255 254 252 251 251 251 251
295 295 296 296 297 297 298 298 299 300 300 301 301 302 302 303 303 303 304 304 305 305 306 306 306 306 306 306 305 305 305 304 303 303 302 300 297 295 292 289 286 284 281 279 276 274 271 269 266 264 262 260 258 257 256 255 255 254 253 251 250 250 250
295 295 296 296 297 297 298 298 299 300 300 301 301 302 302 303 303 303 304 304 305 305 305 306 306 306 306 305 305 304 304 303 303 302 300 298 296 293 290 287 285 282 280 278 276 273 271 268 266 263 262 260 258 256 255 255 254 254 253 252 251 250 250
295 295 295 296 296 297 298 298 299 300 300 301 301 302 302 303 303 304 304 305 305 305 305 305 305 305 305 304 304 303 303 302 302 301 299 296 294 291 288 285 283 281 279 277 275 273 270 268 265 263 261 260 258 257 255 255 254 254 253 252 252 250 250
295 295 295 296 297 297 298 299 299 300 300 301 301 302 302 303 303 304 304 305 305 305 305 305 305 304 304 304 303 303 302 302 300 299 297 295 292 289 287 284 282 280 278 276 275 273 270 268 265 263 261 259 258 257 256 255 254 254 253 252 252 251 250
295 296 296 297 298 298 299 299 300 300 301 301 302 302 302 303 304 304 304 304 304 304 304 304 304 304 303 303 302 302 301 300 299 297 295 293 291 288 286 283 281 279 277 275 273 271 269 267 265 263 261 259 258 257 256 255 254 253 253 253 252 252 251
296 296 297 298 298 299 299 300 300 301 301 301 302 302 303 303 304 304 304 304 304 304 304 304 303 303 303 302 302 301 300 299 297 295 293 291 289 287 285 283 281 279 277 275 272 270 268 266 265 263 261 260 258 257 256 255 254 254 253 253 253 252 252
296 297 297 298 299 299 300 300 300 301 301 302 302 303 303 303 304 304 304 304 303 303 303 303 302 302 302 301 300 299 298 297 295 294 292 290 288 286 284 282 280 279 276 274 272 269 267 265 264 263 261 260 258 257 256 255 254 254 253 253 253 252 252
296 297 297 298 298 299 299 300 300 301 301 302 302 303 303 303 303 303 303 303 303 303 302 302 302 301 301 300 299 298 296 295 294 292 291 289 287 285 283 281 280 278 275 273 271 269 267 265 263 262 260 259 258 257 256 255 255 254 254 254 253 253 253
296 297 297 298 298 298 299 299 300 301 301 302 302 302 303 303 303 303 302 302 302 302 302 301 301 300 299 298 297 296 295 294 292 291 289 287 286 284 282 281 280 277 275 272 270 268 266 265 263 262 260 259 258 257 256 255 254 254 254 254 254 253 253
296 297 297 298 298 298 299 299 300 301 301 302 302 302 302 302 302 302 302 302 301 301 301 300 299 299 298 297 296 294 293 292 291 289 288 286 284 283 281 280 279 277 275 272 270 267 266 264 263 261 260 259 259 258 257 255 254 254 254 254 253 253 253
296 297 297 297 298 298 299 300 300 301 301 301 301 301 302 302 301 301 301 301 301 300 299 299 298 297 297 295 294 293 292 291 290 288 286 285 283 282 280 279 277 276 274 272 270 268 266 264 262 261 260 259 259 258 257 256 255 254 253 253 253 253 252
296 297 297 298 298 299 299 300 300 301 301 301 301 301 301 301 301 300 300 300 300 299 298 298 297 296 295 294 293 292 291 290 288 287 285 284 282 280 279 277 276 274 273 272 270 269 267 265 263 262 260 259 259 258 258 257 256 255 254 253 253 253 252
296 297 297 298 299 299 300 300 300 300 300 301 301 301 301 300 300 300 299 299 298 298 297 296 296 295 294 293 292 291 290 289 287 286 284 283 281 279 278 276 275 274 272 271 270 268 267 266 264 263 262 261 259 259 258 257 256 255 254 254 254 253 253
297 297 298 299 299 300 300 300 300 300 300 300 301 300 300 299 299 299 298 298 297 296 296 295 295 294 293 292 291 290 289 287 286 285 283 282 280 279 277 275 274 273 272 270 269 268 267 266 265 264 263 262 260 259 258 257 256 255 254 254 254 253 253
298 298 299 299 300 300 300 300 300 300 300 300 300 300 299 299 298 298 297 297 296 296 295 295 294 293 292 291 290 289 288 286 285 283 282 281 279 278 276 275 273 272 271 270 268 267 267 266 265 265 264 262 261 260 258 257 256 255 255 254 253 253 253
298 299 299 299 300 300 300 300 300 300 300 299 299 299 298 298 297 297 296 296 295 295 295 294 293 292 291 290 289 288 286 285 284 282 281 280 279 277 276 274 273 272 270 269 268 267 267 266 265 264 263 262 261 260 259 258 256 255 255 254 254 253 253
299 299 299 300 300 300 300 300 300 299 299 299 298 298 297 297 296 296 296 295 295 295 294 293 292 291 290 289 288 287 285 284 283 282 281 280 278 277 276 274 273 271 270 269 268 267 266 265 265 264 263 262 261 260 259 259 257 256 255 254 254 253 253
299 299 299 300 300 300 300 299 299 298 298 298 298 297 297 296 296 295 295 295 295 294 293 292 291 291 290 289 288 286 285 284 283 282 280 279 278 277 275 273 272 271 269 268 267 266 265 265 264 263 262 262 261 260 260 259 259 258 257 255 254 253 253
299 299 299 300 300 299 299 298 298 298 298 298 297 296 296 295 295 295 295 295 294 294 293 292 291 291 290 288 287 286 285 284 282 281 280 279 278 276 275 273 272 270 269 268 267 265 264 264 264 263 263 262 262 261 260 259 258 258 257 257 255 254 253
299 299 299 299 299 298 298 298 298 298 297 297 296 296 295 295 295 295 295 295 294 294 293 292 291 290 289 288 287 285 284 283 282 281 280 279 277 276 274 273 271 270 269 267 266 265 264 264 263 263 263 262 262 261 261 260 258 257 257 256 255 255 254
299 299 299 298 298 298 298 298 298 297 297 296 295 295 295 295 295 295 295 295 294 293 292 291 291 290 289 287 286 285 284 283 282 281 280 278 277 275 274 273 271 270 268 267 266 265 264 263 263 262 262 262 262 262 261 260 259 258 257 256 255 254 254
298 298 298 298 298 298 298 298 298 297 296 295 295 295 295 295 295 294 294 294 293 292 291 291 290 289 288 287 286 285 284 282 281 280 279 277 276 275 274 272 271 270 268 267 266 265 264 263 262 262 261 261 261 261 261 260 259 259 258 257 256 255 254
298 298 298 298 298 298 298 298 297 296 295 295 295 295 295 295 294 293 293 293 291 291 290 290 289 288 287 286 285 284 283 282 280 279 278 277 275 274 272 271 270 269 268 267 266 265 263 263 262 261 261 260 260 260 260 260 259 259 258 257 257 256 256
298 298 297 297 298 298 298 298 296 295 295 295 295 295 295 294 293 292 292 291 290 290 289 289 288 287 286 285 285 284 283 281 280 279 278 276 275 273 272 271 269 268 267 266 265 264 263 263 262 261 261 260 260 259 259 259 259 258 258 257 257 257 256
297 297 297 298 298 298 298 297 296 295 294 294 295 295 294 293 292 291 291 290 289 289 288 288 287 286 286 285 284 283 282 281 280 279 278 276 275 273 272 271 269 268 267 266 265 264 263 263 262 261 261 261 260 260 259 259 259 258 258 257 257 257 256
Height
10407 10403 10399 10395 10390 10386 10381 10376 10371 10366 10360 10354 10347 10341 10335 10329 10322 10315 10309 10303 10296 10290 10283 10277 10270 10263 10257 10250 10243 10237 10230 10222 10214 10205 10197 10189 10181 10173 10166 10160 10156 10154 10151 10147 10142 10139 10135 10134 10133 10133 10133 10134 10133 10133 10134 10135 10137 10139 10141 10143 10146 10149 10153
10392 10388 10384 10379 10374 10369 10364 10359 10354 10349 10343 10337 10330 10324 10318 10312 10305 10298 10292 10285 10278 10272 10265 10259 10252 10245 10239 10232 10225 10217 10210 10202 10195 10187 10179 10171 10163 10155 10148 10142 10138 10135 10133 10129 10125 10121 10118 10116 10116 10116 10116 10116 10117 10117 10118 10119 10121 10123 10125 10127 10130 10133 10137
10377 10372 10367 10363 10358 10353 10347 10342 10336 10331 10325 10319 10313 10306 10300 10294 10288 10281 10274 10266 10259 10252 10246 10239 10233 10226 10220 10213 10206 10199 10191 10183 10175 10168 10160 10152 10145 10138 10131 10125 10120 10117 10115 10112 10108 10104 10101 10099 10099 10099 10099 10099 10100 10101 10102 10104 10105 10107 10110 10112 10115 10117 10121
10361 10356 10351 10346 10340 10335 10330 10324 10318 10313 10307 10301 10295 10288 10281 10275 10269 10262 10255 10248 10240 10233 10226 10219 10213 10206 10200 10193 10186 10179 10171 10163 10155 10147 10140 10133 10126 10120 10114 10108 10103 10100 10097 10095 10092 10088 10085 10083 10082 10082 10082 10082 10082 10084 10086 10088 10089 10091 10094 10096 10099 10102 10105
10345 10340 10334 10329 10323 10317 10312 10306 10301 10295 10289 10283 10277 10271 10264 10256 10249 10242 10235 10228 10221 10214 10207 10200 10193 10186 10179 10172 10165 10158 10151 10144 10136 10128 10120 10113 10106 10101 10095 10090 10085 10082 10080 10078 10076 10072 10069 10067 10065 10065 10065 10065 10066 10067 10068 10071 10073 10075 10078 10081 10083 10086 10089
10328 10323 10318 10312 10307 10301 10294 10288 10282 10277 10271 10265 10259 10253 10245 10238 10231 10223 10215 10208 10201 10194 10187 10180 10174 10166 10159 10152 10145 10137 10130 10123 10116 10108 10100 10093 10087 10081 10076 10072 10067 10064 10062 10060 10059 10056 10053 10050 10049 10049 10048 10048 10049 10051 10052 10054 10057 10059 10062 10065 10068 10070 10073
10311 10306 10301 10295 10289 10284 10277 10271 10265 10258 10253 10247 10241 10235 10227 10219 10211 10204 10196 10188 10180 10173 10167 10160 10153 10146 10139 10132 10125 10117 10109 10102 10095 10089 10081 10074 10068 10062 10057 10054 10049 10045 10043 10042 10041 10040 10037 10034 10033 10032 10032 10032 10033 10035 10036 10037 10039 10042 10045 10048 10051 10054 10057
10294 10289 10284 10278 10272 10266 10260 10254 10247 10241 10235 10228 10222 10216 10208 10199 10191 10183 10175 10166 10159 10152 10146 10140 10132 10124 10117 10111 10104 10097 10089 10081 10074 10068 10062 10055 10049 10043 10038 10034 10031 10028 10025 10024 10023 10022 10020 10018 10017 10016 10016 10015 10016 10018 10020 10022 10024 10026 10028 10031 10034 10037 10040
10278 10272 10266 10260 10254 10247 10241 10235 10229 10223 10217 10210 10203 10196 10189 10181 10172 10163 10154 10145 10137 10130 10124 10118 10111 10103 10095 10089 10082 10075 10068 10061 10054 10048 10041 10035 10029 10024 10019 10015 10012 10009 10007 10005 10004 10003 10002 10001 10000 10000 9999 9999 9999 10000 10003 10006 10008 10010 10012 10014 10017 10020 10024
10262 10256 10250 10243 10236 10229 10222 10216 10210 10206 10200 10193 10185 10178 10171 10163 10154 10145 10136 10126 10117 10109 10102 10095 10088 10081 10074 10067 10060 10053 10047 10041 10034 10028 10022 10015 10009 10005 10000 9996 9993 9990 9989 9987 9986 9985 9984 9983 9983 9982 9983 9983 9983 9984 9986 9989 9992 9995 9997 9998 10000 10003 10008
10245 10239 10233 10227 10220 10212 10203 10196 10189 10186 10181 10175 10167 10160 10153 10146 10137 10126 10116 10106 10098 10090 10082 10073 10066 10059 10052 10045 10038 10032 10026 10020 10014 10008 10003 9996 9990 9985 9981 9978 9974 9972 9970 9969 9968 9967 9966 9966 9965 9965 9966 9967 9968 9968 9970 9972 9974 9977 9981 9983 9985 9987 9991
10228 10221 10215 10209 10202 10194 10186 10177 10169 10164 10160 10154 10147 10140 10134 10128 10119 10108 10097 10086 10077 10070 10062 10054 10045 10037 10029 10022 10016 10011 10005 9999 9993 9988 9983 9977 9971 9966 9962 9959 9956 9954 9951 9950 9950 9950 9949 9949 9949 9948 9949 9950 9952 9953 9954 9956 9958 9960 9964 9968 9970 9972 9974
10210 10203 10197 10191 10185 10177 10169 10159 10150 10144 10139 10133 10126 10119 10113 10107 10099 10089 10078 10066 10055 10047 10041 10034 10026 10017 10008 9999 9994 9990 9985 9979 9973 9967 9962 9958 9953 9948 9944 9941 9939 9936 9934 9932 9932 9933 9932 9932 9932 9932 9932 9933 9935 9937 9939 9940 9942 9944 9947 9951 9955 9958 9960
10192 10186 10179 10172 10167 10160 10151 10141 10132 10126 10120 10114 10107 10099 10092 10085 10078 10069 10059 10046 10034 10024 10017 10011 10005 9997 9987 9978 9972 9968 9964 9960 9954 9948 9942 9938 9934 9930 9927 9924 9921 9919 9918 9917 9916 9916 9916 9915 9915 9915 9916 9916 9918 9921 9923 9925 9927 9930 9933 9935 9939 9942 9945
10173 10166 10158 10152 10145 10140 10132 10121 10111 10105 10100 10094 10087 10080 10072 10064 10056 10048 10038 10026 10013 10002 9995 9988 9982 9974 9966 9957 9950 9946 9943 9940 9935 9929 9923 9918 9914 9912 9909 9906 9904 9903 9903 9903 9901 9900 9899 9898 9898 9899 9900 9900 9902 9904 9908 9911 9912 9914 9916 9919 9922 9926 9929
10151 10144 10136 10128 10121 10114 10108 10098 10088 10081 10076 10071 10064 10058 10051 10043 10034 10026 10016 10004 9992 9982 9974 9967 9959 9952 9944 9937 9930 9925 9922 9919 9916 9910 9905 9899 9895 9893 9891 9888 9887 9888 9889 9888 9887 9885 9883 9882 9881 9882 9883 9884 9886 9889 9892 9894 9896 9897 9899 9903 9907 9911 9914
10131 10123 10114 10106 10098 10090 10083 10075 10064 10056 10051 10045 10039 10032 10026 10019 10011 10003 9993 9982 9970 9961 9953 9946 9938 9930 9923 9917 9910 9905 9901 9898 9895 9892 9887 9882 9878 9875 9873 9870 9870 9873 9874 9872 9871 9870 9868 9867 9866 9865 9867 9869 9871 9874 9876 9877 9880 9882 9884 9888 9893 9896 9898
10114 10105 10096 10087 10078 10069 10061 10053 10043 10034 10027 10020 10012 10006 10000 9994 9987 9980 9970 9959 9949 9940 9932 9924 9916 9910 9904 9898 9891 9885 9881 9878 9875 9873 9870 9865 9862 9858 9855 9852 9854 9858 9858 9856 9854 9853 9852 9853 9852 9850 9851 9853 9855 9858 9860 9862 9865 9867 9870 9874 9878 9880 9882
10098 10090 10080 10070 10061 10052 10043 10034 10026 10016 10007 9998 9989 9981 9975 9969 9963 9955 9946 9935 9927 9918 9910 9902 9895 9889 9884 9879 9873 9867 9862 9858 9857 9855 9852 9848 9845 9841 9837 9835 9838 9842 9841 9840 9838 9837 9837 9838 9837 9836 9836 9837 9839 9842 9845 9848 9851 9852 9855 9859 9863 9866 9868
10081 10073 10064 10053 10044 10035 10025 10017 10009 9999 9989 9979 9969 9960 9953 9946 9938 9930 9922 9913 9905 9897 9888 9880 9874 9869 9864 9859 9854 9848 9843 9840 9838 9837 9835 9832 9829 9825 9820 9819 9822 9824 9824 9824 9823 9821 9821 9821 9821 9821 9821 9821 9823 9826 9830 9834 9837 9839 9841 9845 9848 9851 9853
10061 10054 10045 10034 10024 10015 10005 9996 9989 9980 9970 9959 9950 9940 9931 9923 9914 9905 9898 9891 9883 9876 9868 9860 9853 9848 9844 9839 9835 9830 9826 9822 9820 9819 9818 9815 9812 9809 9806 9805 9805 9805 9806 9807 9806 9805 9806 9807 9806 9806 9806 9807 9809 9811 9814 9819 9823 9825 9828 9830 9833 9835 9838
10042 10034 10026 10015 10004 9993 9983 9975 9967 9958 9948 9938 9929 9920 9910 9900 9891 9882 9875 9869 9862 9854 9847 9841 9834 9829 9824 9820 9816 9811 9808 9805 9802 9801 9800 9799 9797 9794 9792 9790 9789 9788 9787 9789 9789 9790 9790 9791 9790 9791 9792 9793 9794 9796 9800 9804 9808 9811 9813 9815 9817 9819 9822
10022 10014 10006 9995 9984 9973 9963 9953 9944 9934 9925 9916 9908 9898 9887 9877 9867 9859 9852 9848 9841 9833 9826 9821 9816 9810 9805 9801 9797 9793 9790 9788 9786 9784 9783 9782 9781 9779 9777 9775 9774 9772 9771 9772 9773 9774 9773 9773 9774 9776 9778 9779 9781 9783 9786 9790 9793 9795 9797 9799 9801 9804 9807
10001 9992 9983 9974 9963 9953 9941 9930 9919 9909 9899 9892 9885 9876 9865 9854 9844 9837 9831 9826 9820 9813 9806 9801 9796 9791 9786 9782 9779 9776 9774 9771 9769 9767 9766 9765 9764 9764 9762 9760 9758 9757 9757 9757 9757 9757 9757 9756 9757 9760 9763 9765 9768 9771 9773 9774 9776 9779 9782 9785 9787 9789 9792
9979 9969 9960 9950 9941 9931 9919 9906 9893 9882 9873 9867 9861 9852 9841 9831 9822 9815 9810 9805 9800 9794 9789 9783 9778 9773 9768 9764 9761 9759 9757 9754 9752 9751 9750 9749 9748 9748 9747 9746 9744 9743 9743 9743 9742 9741 9741 9741 9742 9745 9748 9750 9753 9756 9757 9758 9761 9764 9767 9770 9773 9775 9777
9956 9947 9936 9927 9917 9907 9896 9883 9869 9857 9849 9843 9836 9827 9818 9809 9801 9794 9789 9785 9780 9775 9771 9766 9760 9755 9751 9748 9745 9743 9740 9737 9735 9734 9733 9733 9732 9732 9731 9730 9730 9729 9728 9727 9726 9726 9727 9728 9728 9730 9733 9735 9737 9739 9741 9743 9746 9749 9752 9755 9758 9761 9763
9932 9922 9911 9902 9893 9883 9873 9861 9847 9835 9827 9821 9813 9805 9796 9787 9780 9774 9769 9765 9761 9757 9753 9748 9743 9738 9734 9732 9730 9727 9724 9721 9719 9718 9717 9717 9717 9716 9716 9715 9715 9714 9713 9713 9712 9713 9714 9714 9714 9716 9718 9719 9722 9723 9725 9728 9732 9735 9737 9739 9743 9746 9748
9907 9896 9885 9876 9868 9859 9850 9838 9824 9812 9806 9800 9792 9784 9776 9767 9759 9754 9750 9746 9743 9740 9735 9730 9725 9722 9719 9717 9714 9711 9709 9706 9704 9703 9702 9702 9701 9701 9701 9700 9700 9699 9699 9698 9699 9699 9699 9699 9700 9701 9702 9704 9706 9708 9709 9713 9718 9721 9723 9725 9729 9732 9733
9881 9870 9860 9852 9844 9835 9826 9816 9803 9791 9785 9779 9771 9763 9756 9748 9741 9735 9731 9728 9725 9722 9717 9713 9709 9707 9705 9702 9698 9695 9693 9692 9691 9689 9688 9687 9686 9687 9686 9686 9685 9685 9685 9685 9686 9686 9685 9684 9685 9686 9687 9689 9691 9693 9695 9699 9704 9707 9708 9711 9715 9718 9717
9853 9845 9838 9832 9824 9813 9803 9793 9784 9773 9765 9758 9751 9744 9738 9731 9723 9718 9714 9711 9709 9705 9700 9696 9694 9692 9689 9687 9684 9680 9678 9677 9676 9675 9673 9672 9672 9672 9672 9671 9671 9672 9672 9672 9672 9671 9670 9670 9671 9672 9673 9675 9676 9678 9681 9686 9690 9692 9694 9696 9699 9702 9702
9827 9820 9815 9810 9803 9793 9783 9774 9765 9756 9747 9738 9731 9724 9719 9714 9708 9703 9698 9695 9693 9689 9684 9681 9679 9677 9674 9672 9670 9666 9664 9663 9662 9661 9660 9659 9658 9658 9658 9658 9658 9658 9659 9658 9657 9657 9657 9658 9658 9659 9660 9661 9662 9663 9666 9671 9675 9678 9680 9682 9684 9686 9687
9803 9798 9792 9785 9779 9773 9765 9757 9748 9738 9728 9720 9714 9708 9702 9697 9694 9688 9683 9680 9678 9673 9668 9666 9664 9662 9659 9658 9655 9653 9652 9650 9649 9648 9647 9645 9644 9644 9645 9645 9645 9645 9645 9644 9644 9644 9645 9645 9645 9646 9647 9648 9648 9649 9652 9656 9660 9663 9665 9667 9669 9671 9672
9778 9776 9771 9763 9755 9751 9747 9741 9731 9719 9708 9702 9697 9693 9688 9683 9679 9674 9670 9667 9663 9658 9654 9652 9650 9648 9645 9643 9641 9640 9639 9638 9636 9635 9634 9633 9632 9632 9632 9632 9632 9631 9631 9631 9632 9632 9632 9632 9633 9634 9634 9635 9636 9636 9638 9641 9645 9648 9650 9652 9654 9655 9657
9751 9750 9750 9746 9737 9731 9728 9722 9713 9701 9691 9685 9681 9678 9675 9670 9664 9660 9658 9655 9650 9645 9641 9639 9637 9635 9632 9630 9628 9627 9626 9625 9624 9623 9622 9621 9621 9620 9620 9620 9620 9619 9618 9618 9619 9619 9619 9619 9620 9621 9621 9622 9623 9624 9625 9627 9630 9633 9636 9637 9638 9640 9641
9731 9724 9725 9725 9722 9716 9710 9703 9695 9685 9676 9670 9666 9664 9661 9656 9649 9645 9644 9642 9638 9633 9629 9626 9625 9623 9620 9618 9616 9615 9614 9613 9612 9611 9610 9609 9609 9608 9608 9608 9608 9607 9606 9606 9606 9606 9607 9607 9607 9608 9609 9610 9611 9612 9613 9614 9617 9620 9622 9623 9624 9626 9627
9719 9708 9702 9702 9704 9701 9693 9684 9677 9671 9664 9658 9654 9651 9647 9642 9636 9632 9630 9628 9626 9622 9617 9614 9612 9611 9609 9607 9605 9604 9602 9601 9600 9600 9599 9597 9597 9596 9596 9597 9597 9596 9595 9594 9594 9595 9595 9595 9595 9596 9597 9597 9598 9600 9602 9603 9605 9607 9608 9609 9611 9613 9614